Date String (YYYY-MM-DD hh:mm:ss) UTC,Instrument flags,Ambient pressure (hPa),Sample flow (lpm),Bypass flow (lpm),Sample temperature (°C),Ambient temperature (°C),ASC tube jacket temperature (°C),LED temperature (°C),Box temperature (°C),Sample RH (%),Span deviation,Mass concentration (μg/m³),Mass concentration (μg/m³),Mass concentration (μg/m³)
DateTimeUTC,F1_M11,P_M11,Q1_M11,Q2_M11,T1_M11,T2_M11,T3_M11,T4_M11,T5_M11,U1_M11,ZSPAN_M11,X0_M11,X2_M11,X1_M11
2023-04-30 17:00:00,,0831.7,5.00,0.00,27.2,25.9,00.0,35.5,28.8,16.0,0000.0,0014.68,0005.60,0004.10
2023-04-30 17:01:00,,0831.7,4.99,0.00,27.2,25.9,00.0,35.5,28.8,16.0,0000.0,0013.63,0005.57,0004.10
2023-04-30 17:02:00,,0831.7,5.00,0.00,27.2,25.9,00.0,35.5,28.8,16.0,0000.0,0013.84,0005.58,0004.11
2023-04-30 17:03:00,,0831.7,4.99,0.00,27.2,25.9,00.0,35.5,28.8,16.2,0000.0,0014.05,0005.65,0004.12
2023-04-30 17:04:00,,0831.7,5.00,0.00,27.2,25.9,00.0,35.5,28.8,16.2,0000.0,0014.57,0005.67,0004.13
2023-04-30 17:05:00,,0831.7,5.01,0.00,27.2,25.9,00.0,35.5,28.8,16.0,0000.0,0014.51,0005.67,0004.14
2023-04-30 17:06:00,,0831.7,5.00,0.00,27.2,25.9,00.0,35.5,28.8,15.8,0000.0,0014.66,0005.68,0004.13
2023-04-30 17:07:00,,0831.6,5.00,0.00,27.2,25.9,00.0,35.5,28.8,15.8,0000.0,0014.91,0005.75,0004.15
2023-04-30 17:08:00,,0831.6,4.99,0.00,27.2,25.9,00.0,35.5,28.8,15.8,0000.0,0015.34,0005.70,0004.14
2023-04-30 17:09:00,,0831.6,4.99,0.00,27.2,25.8,00.0,35.5,28.8,15.7,0000.0,0015.73,0005.72,0004.15
2023-04-30 17:10:00,,0831.6,5.02,0.00,27.2,25.9,00.0,35.5,28.8,15.6,0000.0,0015.60,0005.70,0004.15
2023-04-30 17:11:00,,0831.6,5.00,0.00,27.2,25.9,00.0,35.6,28.8,15.5,0000.0,0014.82,0005.71,0004.15
2023-04-30 17:12:00,,0831.6,4.98,0.00,27.2,25.9,00.0,35.6,28.8,15.5,0000.0,0014.30,0005.72,0004.14
2023-04-30 17:13:00,,0831.6,5.00,0.00,27.3,25.9,00.0,35.6,28.8,15.8,0000.0,0014.26,0005.75,0004.12
2023-04-30 17:14:00,,0831.6,5.01,0.00,27.3,25.9,00.0,35.6,28.8,15.4,0000.0,0014.77,0005.73,0004.11
2023-04-30 17:15:00,,0831.6,5.00,0.00,27.3,25.9,00.0,35.6,28.8,15.6,0000.0,0016.00,0005.75,0004.10
2023-04-30 17:16:00,,0831.7,5.00,0.00,27.3,26.0,00.0,35.6,28.8,15.7,0000.0,0016.44,0005.78,0004.11
2023-04-30 17:17:00,,0831.6,5.00,0.00,27.3,26.0,00.0,35.6,28.9,15.5,0000.0,0016.17,0005.78,0004.11
2023-04-30 17:18:00,,0831.6,5.00,0.00,27.3,26.0,00.0,35.6,28.9,15.1,0000.0,0016.18,0005.82,0004.10
2023-04-30 17:19:00,,0831.6,5.00,0.00,27.3,26.0,00.0,35.6,28.8,15.4,0000.0,0015.80,0005.89,0004.09
2023-04-30 17:20:00,,0831.6,5.00,0.00,27.3,26.0,00.0,35.6,28.8,15.4,0000.0,0015.59,0005.94,0004.09
2023-04-30 17:21:00,,0831.6,5.00,0.00,27.3,26.0,00.0,35.6,28.8,15.4,0000.0,0015.95,0006.02,0004.11
2023-04-30 17:22:00,,0831.6,5.00,0.00,27.3,26.0,00.0,35.6,28.9,15.7,0000.0,0016.36,0006.04,0004.12
2023-04-30 17:23:00,,0831.6,5.01,0.00,27.3,26.0,00.0,35.6,28.9,15.6,0000.0,0017.07,0006.05,0004.11
2023-04-30 17:24:00,,0831.6,5.01,0.00,27.3,26.0,00.0,35.6,28.9,15.3,0000.0,0017.14,0006.05,0004.12
2023-04-30 17:25:00,,0831.6,5.00,0.00,27.3,26.0,00.0,35.7,28.8,15.5,0000.0,0017.60,0006.10,0004.14
2023-04-30 17:26:00,,0831.6,5.00,0.00,27.3,25.9,00.0,35.7,28.8,15.8,0000.0,0016.81,0006.06,0004.14
2023-04-30 17:27:00,,0831.6,4.99,0.00,27.3,25.9,00.0,35.7,28.8,15.7,0000.0,0016.59,0005.98,0004.16
2023-04-30 17:28:00,,0831.6,5.00,0.00,27.3,25.9,00.0,35.7,28.8,15.5,0000.0,0016.23,0005.93,0004.18
2023-04-30 17:29:00,,0831.6,5.02,0.00,27.2,25.9,00.0,35.7,28.8,15.6,0000.0,0016.52,0005.86,0004.20
2023-04-30 17:30:00,,0831.6,5.00,0.00,27.2,25.8,00.0,35.7,28.8,15.4,0000.0,0016.53,0005.81,0004.22
2023-04-30 17:31:00,,0831.6,4.99,0.00,27.2,25.8,00.0,35.6,28.8,15.3,0000.0,0016.82,0005.77,0004.23
2023-04-30 17:32:00,,0831.5,4.99,0.00,27.2,25.8,00.0,35.6,28.8,15.4,0000.0,0016.30,0005.73,0004.24
2023-04-30 17:33:00,,0831.6,5.00,0.00,27.2,25.8,00.0,35.6,28.8,15.4,0000.0,0016.03,0005.72,0004.24
2023-04-30 17:34:00,,0831.6,4.99,0.00,27.2,25.8,00.0,35.6,28.8,15.5,0000.0,0015.35,0005.75,0004.25
2023-04-30 17:35:00,,0831.6,5.00,0.00,27.2,25.9,00.0,35.6,28.8,15.3,0000.0,0015.31,0005.77,0004.26
2023-04-30 17:36:00,,0831.5,5.01,0.00,27.3,25.9,00.0,35.6,28.8,15.6,0000.0,0014.74,0005.73,0004.26
2023-04-30 17:37:00,,0831.5,5.00,0.00,27.3,25.9,00.0,35.6,28.8,15.6,0000.0,0013.76,0005.77,0004.27
2023-04-30 17:38:00,,0831.5,5.00,0.00,27.3,25.9,00.0,35.6,28.8,15.7,0000.0,0013.23,0005.83,0004.25
2023-04-30 17:39:00,,0831.5,5.00,0.00,27.3,26.0,00.0,35.7,28.8,15.8,0000.0,0014.02,0005.85,0004.23
2023-04-30 17:40:00,,0831.5,5.00,0.00,27.3,26.0,00.0,35.7,28.8,16.0,0000.0,0013.69,0005.90,0004.21
2023-04-30 17:41:00,,0831.5,5.00,0.00,27.3,26.0,00.0,35.7,28.8,15.8,0000.0,0013.57,0005.97,0004.21
2023-04-30 17:42:00,,0831.4,5.00,0.00,27.3,26.0,00.0,35.7,28.9,16.1,0000.0,0013.70,0006.00,0004.21
2023-04-30 17:43:00,,0831.4,4.99,0.00,27.3,26.0,00.0,35.7,28.9,16.0,0000.0,0014.10,0006.00,0004.20
2023-04-30 17:44:00,,0831.4,5.00,0.00,27.3,26.0,00.0,35.7,28.9,15.9,0000.0,0014.63,0006.07,0004.22
2023-04-30 17:45:00,,0831.4,5.02,0.00,27.3,26.0,00.0,35.7,28.9,16.0,0000.0,0015.49,0006.12,0004.23
2023-04-30 17:46:00,,0831.4,5.00,0.00,27.3,26.0,00.0,35.7,28.9,16.3,0000.0,0016.66,0006.09,0004.24
2023-04-30 17:47:00,,0831.4,5.01,0.00,27.3,26.0,00.0,35.7,28.8,15.9,0000.0,0017.01,0006.08,0004.26
2023-04-30 17:48:00,,0831.4,5.00,0.00,27.3,26.0,00.0,35.7,28.9,15.9,0000.0,0017.37,0006.05,0004.28
2023-04-30 17:49:00,,0831.4,4.99,0.00,27.3,26.0,00.0,35.7,28.9,15.9,0000.0,0017.86,0006.08,0004.32
2023-04-30 17:50:00,,0831.4,5.00,0.00,27.3,26.0,00.0,35.7,28.9,15.8,0000.0,0017.97,0006.11,0004.35
2023-04-30 17:51:00,,0831.4,5.01,0.00,27.3,26.1,00.0,35.7,28.9,15.7,0000.0,0019.10,0006.10,0004.38
2023-04-30 17:52:00,,0831.4,5.00,0.00,27.3,26.1,00.0,35.7,28.9,15.6,0000.0,0020.22,0006.07,0004.39
2023-04-30 17:53:00,,0831.5,5.00,0.00,27.4,26.1,00.0,35.7,28.9,15.7,0000.0,0020.12,0006.11,0004.42
2023-04-30 17:54:00,,0831.4,5.00,0.00,27.4,26.2,00.0,35.7,28.9,15.7,0000.0,0019.65,0006.11,0004.43
2023-04-30 17:55:00,,0831.4,5.00,0.00,27.4,26.2,00.0,35.7,29.0,15.9,0000.0,0019.80,0006.13,0004.44
2023-04-30 17:56:00,,0831.4,5.02,0.00,27.4,26.2,00.0,35.7,29.0,15.8,0000.0,0019.24,0006.09,0004.45
2023-04-30 17:57:00,,0831.4,4.99,0.00,27.4,26.3,00.0,35.7,29.0,15.6,0000.0,0017.95,0006.13,0004.48
2023-04-30 17:58:00,,0831.4,4.99,0.00,27.5,26.3,00.0,35.8,29.0,15.6,0000.0,0017.85,0006.18,0004.49
2023-04-30 17:59:00,,0831.4,5.02,0.00,27.5,26.3,00.0,35.8,29.0,15.9,0000.0,0017.67,0006.23,0004.49
